Location: Unspecified
(0.0000°N, 0.0000°E)
Time: 07:09:09
(UTC+00:00)

Tiangong - Pass Details

Date: 15 September 2021
Orbit: 381 x 386 km, 41.5° (Epoch: 18 September)

Event Time Altitude Azimuth Distance (km) Brightness Sun altitude
Rises 18:16:03 0° 314° (NW) 2,230 5.8 -5.2°
Reaches altitude 10° 18:18:06 10° 315° (NW) 1,381 4.7 -5.8°
Maximum altitude 18:21:13 88° 45° (NE) 381 1.0 -6.5°
Drops below altitude 10° 18:24:21 10° 133° (SE) 1,387 3.4 -7.3°
Enters shadow 18:25:27 - 134° (SE) 1,842 4.1 -7.6°
